Weather in Snetskoye

Russia / Kursk Oblast     52°06′42″N   35°17′45″E
temp.,
°C
wind,
m/s
gust,
m/s
humid.,
%
clouds,
%
prec.,
mm/h
press.,
hPa
HPBL,
m
18 may, tue
tue1800:00+17sse4109298 0.9 1004241
03:00+15se2296100 1.9 100422
06:00+16s119686 0.0 100444
09:00+20ese3483100 2.8 1004256
12:00+18wsw4484100 1.9 1004456
15:00+20s3479100 2.5 1003782
18:00+15se389680 4.4 1003355
21:00+15sse51192100 5.9 1003337
19 may, wed
wed1900:00+13sse41095100 0.3 1003273
03:00+12se3796100 0.3 1003169
06:00+12se5109689 0.0 1004324
09:00+15sse5889100 0.2 1005652
12:00+15sse478299 0.1 1005620
15:00+17se4675100 0.3 1005903
18:00+14sse4693100 1.2 1005284
21:00+12sw1296100 3.8 100551
20 may, thu
thu2000:00+12s2296100 0.4 100469
03:00+11s2598100 2.9 1003205
06:00+11ssw2599100 6.0 1003162
09:00+12sse3599100 12.2 1003292
12:00+13sw6992100 1.3 1005740
15:00+13sw5892100 1.6 1007660
18:00+13sw599398 0.4 1008591
21:00+11sw479695 0.7 1010388
21 may, fri
fri2100:00+10wsw389656 0.0 1011291
03:00+9w379694 0.0 1012209
06:00+9w2292100 0.0 101467
09:00+13nnw247866 0.0 1014502
12:00+16nne2263100 0.0 10151233
15:00+15e2377100 0.6 1015524
18:00+12nne3594100 2.3 1015157
21:00+11ne4991100 2.9 1016224
22 may, sat
sat2200:00+11nne41095100 0.7 1015310
03:00+11ne51096100 0.8 1014316
06:00+11nne51095100 0.1 1014354
09:00+13nne6891100 0.1 1014476
12:00+16ne6782100 0.0 1014750
15:00+16ne5679100 0.1 1015904
18:00+16ne4783100 0.0 1015445
21:00+14ne3788100 0.0 1016224